Time,TemperatureF,DewpointF,PressureIn,WindDirection,WindDirectionDegrees,WindSpeedMPH,WindSpeedGustMPH,Humidity,HourlyPrecipIn,Conditions,Clouds,dailyrainin,SoftwareType,DateUTC
2013-05-13 00:01:00,39.2,28.8,29.95,West,270,6.3,-999.0,66,-99.99,,,0.00,Acu-Link.com,2013-05-13 04:01:00,
2013-05-13 00:17:00,38.7,28.7,29.95,SSW,202,6.8,-999.0,67,-99.99,,,0.00,Acu-Link.com,2013-05-13 04:17:00,
2013-05-13 00:32:00,38.8,28.8,29.95,South,180,8.9,-999.0,67,-99.99,,,0.00,Acu-Link.com,2013-05-13 04:32:00,
2013-05-13 00:47:00,38.7,28.7,29.94,West,270,5.8,-999.0,67,-99.99,,,0.00,Acu-Link.com,2013-05-13 04:47:00,
2013-05-13 01:02:00,38.3,28.7,29.95,West,270,3.2,-999.0,68,-99.99,,,0.00,Acu-Link.com,2013-05-13 05:02:00,
2013-05-13 01:17:00,38.3,28.7,29.95,SW,225,6.8,-999.0,68,-99.99,,,0.00,Acu-Link.com,2013-05-13 05:17:00,
2013-05-13 01:33:00,37.9,28.3,29.95,West,270,4.7,-999.0,68,-99.99,,,0.00,Acu-Link.com,2013-05-13 05:33:00,
2013-05-13 01:48:00,37.6,28.4,29.95,NNW,337,7.3,-999.0,69,-99.99,,,0.00,Acu-Link.com,2013-05-13 05:48:00,
2013-05-13 02:03:00,37.6,28.4,29.94,West,270,9.4,-999.0,69,-99.99,,,0.00,Acu-Link.com,2013-05-13 06:03:00,
2013-05-13 02:18:00,37.4,28.5,29.94,West,270,5.3,-999.0,70,-99.99,,,0.00,Acu-Link.com,2013-05-13 06:18:00,
2013-05-13 02:33:00,37.0,28.8,29.95,WNW,292,10.4,-999.0,72,-99.99,,,0.00,Acu-Link.com,2013-05-13 06:33:00,
2013-05-13 02:49:00,36.5,29.0,29.95,WNW,292,3.7,-999.0,74,-99.99,,,0.00,Acu-Link.com,2013-05-13 06:49:00,
2013-05-13 03:04:00,36.3,28.5,29.96,WSW,247,3.7,-999.0,73,-99.99,,,0.00,Acu-Link.com,2013-05-13 07:04:00,
2013-05-13 03:19:00,35.8,28.3,29.95,South,180,5.8,-999.0,74,-99.99,,,0.00,Acu-Link.com,2013-05-13 07:19:00,
2013-05-13 03:34:00,35.1,28.0,29.96,WSW,247,3.7,-999.0,75,-99.99,,,0.00,Acu-Link.com,2013-05-13 07:34:00,
2013-05-13 03:49:00,34.9,27.8,29.95,SW,225,5.8,-999.0,75,-99.99,,,0.00,Acu-Link.com,2013-05-13 07:49:00,
2013-05-13 04:05:00,34.9,27.8,29.96,WNW,292,2.2,-999.0,75,-99.99,,,0.00,Acu-Link.com,2013-05-13 08:05:00,
2013-05-13 04:21:00,34.7,27.9,29.96,WSW,247,4.7,-999.0,76,-99.99,,,0.00,Acu-Link.com,2013-05-13 08:21:00,
2013-05-13 04:36:00,34.2,28.1,29.95,WNW,292,2.2,-999.0,78,-99.99,,,0.00,Acu-Link.com,2013-05-13 08:36:00,
2013-05-13 04:51:00,33.6,28.1,29.95,West,270,2.7,-999.0,80,-99.99,,,0.00,Acu-Link.com,2013-05-13 08:51:00,
2013-05-13 05:06:00,33.1,27.9,29.95,West,270,5.3,-999.0,81,-99.99,,,0.00,Acu-Link.com,2013-05-13 09:06:00,
2013-05-13 05:21:00,32.5,27.9,29.95,West,270,3.2,-999.0,83,-99.99,,,0.00,Acu-Link.com,2013-05-13 09:21:00,
2013-05-13 05:36:00,32.2,27.9,29.95,WNW,292,4.7,-999.0,84,-99.99,,,0.00,Acu-Link.com,2013-05-13 09:36:00,
2013-05-13 05:51:00,32.4,28.1,29.96,West,270,7.3,-999.0,84,-99.99,,,0.00,Acu-Link.com,2013-05-13 09:51:00,
2013-05-13 06:07:00,32.4,27.8,29.96,West,270,3.2,-999.0,83,-99.99,,,0.00,Acu-Link.com,2013-05-13 10:07:00,
2013-05-13 06:22:00,32.2,27.0,29.97,West,270,3.7,-999.0,81,-99.99,,,0.00,Acu-Link.com,2013-05-13 10:22:00,
2013-05-13 06:37:00,32.2,26.4,29.97,West,270,3.7,-999.0,79,-99.99,,,0.00,Acu-Link.com,2013-05-13 10:37:00,
2013-05-13 06:52:00,32.5,26.1,29.98,WNW,292,5.3,-999.0,77,-99.99,,,0.00,Acu-Link.com,2013-05-13 10:52:00,
2013-05-13 07:08:00,32.5,26.1,29.98,West,270,4.2,-999.0,77,-99.99,,,0.00,Acu-Link.com,2013-05-13 11:08:00,
2013-05-13 07:23:00,32.9,26.8,29.98,West,270,5.8,-999.0,78,-99.99,,,0.00,Acu-Link.com,2013-05-13 11:23:00,
2013-05-13 07:38:00,33.8,26.7,29.99,WNW,292,4.7,-999.0,75,-99.99,,,0.00,Acu-Link.com,2013-05-13 11:38:00,
2013-05-13 07:53:00,34.3,25.9,29.99,WSW,247,6.3,-999.0,71,-99.99,,,0.00,Acu-Link.com,2013-05-13 11:53:00,
2013-05-13 08:09:00,35.2,26.1,29.99,West,270,5.3,-999.0,69,-99.99,,,0.00,Acu-Link.com,2013-05-13 12:09:00,
2013-05-13 08:24:00,36.7,26.8,30.00,WSW,247,5.3,-999.0,67,-99.99,,,0.00,Acu-Link.com,2013-05-13 12:24:00,
2013-05-13 08:39:00,37.4,26.0,30.01,WNW,292,5.3,-999.0,63,-99.99,,,0.00,Acu-Link.com,2013-05-13 12:39:00,
2013-05-13 08:54:00,38.5,25.8,30.01,NNW,337,11.9,-999.0,60,-99.99,,,0.00,Acu-Link.com,2013-05-13 12:54:00,
2013-05-13 09:10:00,39.9,25.5,30.02,West,270,8.9,-999.0,56,-99.99,,,0.00,Acu-Link.com,2013-05-13 13:10:00,
2013-05-13 09:25:00,40.5,25.2,30.02,WNW,292,6.8,-999.0,54,-99.99,,,0.00,Acu-Link.com,2013-05-13 13:25:00,
2013-05-13 09:40:00,40.3,23.6,30.02,NW,315,9.4,-999.0,51,-99.99,,,0.00,Acu-Link.com,2013-05-13 13:40:00,
2013-05-13 09:55:00,41.2,23.0,30.02,WSW,247,5.8,-999.0,48,-99.99,,,0.00,Acu-Link.com,2013-05-13 13:55:00,
2013-05-13 10:10:00,41.4,24.2,30.02,WNW,292,5.8,-999.0,50,-99.99,,,0.00,Acu-Link.com,2013-05-13 14:10:00,
2013-05-13 10:26:00,41.7,23.5,30.02,SW,225,9.9,-999.0,48,-99.99,,,0.00,Acu-Link.com,2013-05-13 14:26:00,
2013-05-13 10:41:00,42.4,23.6,30.03,West,270,5.3,-999.0,47,-99.99,,,0.00,Acu-Link.com,2013-05-13 14:41:00,
2013-05-13 10:56:00,43.3,22.3,30.03,West,270,6.3,-999.0,43,-99.99,,,0.00,Acu-Link.com,2013-05-13 14:56:00,
2013-05-13 11:11:00,43.3,22.3,30.03,West,270,9.4,-999.0,43,-99.99,,,0.00,Acu-Link.com,2013-05-13 15:11:00,
2013-05-13 11:26:00,43.2,21.7,30.04,WNW,292,12.5,-999.0,42,-99.99,,,0.00,Acu-Link.com,2013-05-13 15:26:00,
2013-05-13 11:42:00,43.2,22.8,30.04,NNW,337,10.9,-999.0,44,-99.99,,,0.00,Acu-Link.com,2013-05-13 15:42:00,
2013-05-13 11:57:00,45.3,23.0,30.04,WSW,247,10.9,-999.0,41,-99.99,,,0.00,Acu-Link.com,2013-05-13 15:57:00,
2013-05-13 12:12:00,44.6,22.9,30.04,NNW,337,6.8,-999.0,42,-99.99,,,0.00,Acu-Link.com,2013-05-13 16:12:00,
2013-05-13 12:27:00,45.5,23.2,30.04,WNW,292,11.4,-999.0,41,-99.99,,,0.00,Acu-Link.com,2013-05-13 16:27:00,
2013-05-13 12:43:00,43.9,22.9,30.04,West,270,9.4,-999.0,43,-99.99,,,0.00,Acu-Link.com,2013-05-13 16:43:00,
2013-05-13 12:58:00,46.8,23.2,30.03,WNW,292,7.3,-999.0,39,-99.99,,,0.00,Acu-Link.com,2013-05-13 16:58:00,
2013-05-13 13:13:00,44.2,23.1,30.04,South,180,7.8,-999.0,43,-99.99,,,0.00,Acu-Link.com,2013-05-13 17:13:00,
2013-05-13 13:28:00,43.9,22.3,30.03,West,270,9.4,-999.0,42,-99.99,,,0.00,Acu-Link.com,2013-05-13 17:28:00,
2013-05-13 13:43:00,45.5,23.8,30.04,West,270,7.8,-999.0,42,-99.99,,,0.00,Acu-Link.com,2013-05-13 17:43:00,
2013-05-13 13:59:00,46.6,23.6,30.03,West,270,9.9,-999.0,40,-99.99,,,0.00,Acu-Link.com,2013-05-13 17:59:00,
2013-05-13 14:14:00,45.1,23.4,30.03,West,270,7.8,-999.0,42,-99.99,,,0.00,Acu-Link.com,2013-05-13 18:14:00,
2013-05-13 14:29:00,46.0,24.2,30.02,WSW,247,6.3,-999.0,42,-99.99,,,0.00,Acu-Link.com,2013-05-13 18:29:00,
2013-05-13 14:44:00,46.8,23.8,30.03,West,270,5.8,-999.0,40,-99.99,,,0.00,Acu-Link.com,2013-05-13 18:44:00,
2013-05-13 14:59:00,45.5,23.8,30.02,West,270,8.3,-999.0,42,-99.99,,,0.00,Acu-Link.com,2013-05-13 18:59:00,
2013-05-13 15:15:00,44.2,22.6,30.03,NNW,337,7.8,-999.0,42,-99.99,,,0.00,Acu-Link.com,2013-05-13 19:15:00,
2013-05-13 15:30:00,46.0,22.4,30.02,West,270,8.9,-999.0,39,-99.99,,,0.00,Acu-Link.com,2013-05-13 19:30:00,
2013-05-13 15:46:00,46.0,24.2,30.02,NNW,337,7.8,-999.0,42,-99.99,,,0.00,Acu-Link.com,2013-05-13 19:46:00,
2013-05-13 16:01:00,44.6,23.5,30.02,WNW,292,13.0,-999.0,43,-99.99,,,0.00,Acu-Link.com,2013-05-13 20:01:00,
2013-05-13 16:16:00,46.8,23.2,30.02,NW,315,7.3,-999.0,39,-99.99,,,0.00,Acu-Link.com,2013-05-13 20:16:00,
2013-05-13 16:32:00,45.1,24.0,30.02,WNW,292,10.4,-999.0,43,-99.99,,,0.00,Acu-Link.com,2013-05-13 20:32:00,
2013-05-13 16:47:00,44.8,23.1,30.02,West,270,11.9,-999.0,42,-99.99,,,0.00,Acu-Link.com,2013-05-13 20:47:00,
2013-05-13 17:02:00,46.4,25.1,30.02,West,270,9.4,-999.0,43,-99.99,,,0.00,Acu-Link.com,2013-05-13 21:02:00,
2013-05-13 17:17:00,47.3,26.0,30.01,SW,225,6.8,-999.0,43,-99.99,,,0.00,Acu-Link.com,2013-05-13 21:17:00,
2013-05-13 17:32:00,48.4,25.2,30.01,SW,225,4.7,-999.0,40,-99.99,,,0.00,Acu-Link.com,2013-05-13 21:32:00,
2013-05-13 17:48:00,46.6,25.9,30.02,WNW,292,6.3,-999.0,44,-99.99,,,0.00,Acu-Link.com,2013-05-13 21:48:00,
2013-05-13 18:03:00,47.3,25.4,30.01,East,90,8.3,-999.0,42,-99.99,,,0.00,Acu-Link.com,2013-05-13 22:03:00,
2013-05-13 18:18:00,45.1,25.6,30.01,NNE,22,5.3,-999.0,46,-99.99,,,0.00,Acu-Link.com,2013-05-13 22:18:00,
2013-05-13 18:34:00,46.4,25.7,30.01,WNW,292,13.0,-999.0,44,-99.99,,,0.00,Acu-Link.com,2013-05-13 22:34:00,
2013-05-13 18:49:00,45.9,25.8,30.02,West,270,4.2,-999.0,45,-99.99,,,0.00,Acu-Link.com,2013-05-13 22:49:00,
2013-05-13 19:04:00,45.9,25.8,30.02,West,270,5.3,-999.0,45,-99.99,,,0.00,Acu-Link.com,2013-05-13 23:04:00,
2013-05-13 19:19:00,44.2,24.7,30.02,WNW,292,4.7,-999.0,46,-99.99,,,0.00,Acu-Link.com,2013-05-13 23:19:00,
2013-05-13 19:34:00,43.0,25.2,30.03,WNW,292,4.7,-999.0,49,-99.99,,,0.00,Acu-Link.com,2013-05-13 23:34:00,
2013-05-13 19:50:00,42.4,25.1,30.03,West,270,4.7,-999.0,50,-99.99,,,0.00,Acu-Link.com,2013-05-13 23:50:00,
2013-05-13 20:05:00,41.7,25.8,30.03,West,270,4.7,-999.0,53,-99.99,,,0.00,Acu-Link.com,2013-05-14 00:05:00,
2013-05-13 20:20:00,41.2,24.9,30.04,WNW,292,6.3,-999.0,52,-99.99,,,0.00,Acu-Link.com,2013-05-14 00:20:00,
2013-05-13 20:36:00,40.8,25.5,30.04,West,270,2.7,-999.0,54,-99.99,,,0.00,Acu-Link.com,2013-05-14 00:36:00,
2013-05-13 20:51:00,39.9,28.7,30.05,WSW,247,3.2,-999.0,64,-99.99,,,0.00,Acu-Link.com,2013-05-14 00:51:00,
2013-05-13 21:06:00,39.0,30.1,30.06,West,270,4.2,-999.0,70,-99.99,,,0.00,Acu-Link.com,2013-05-14 01:06:00,
2013-05-13 21:21:00,38.3,30.1,30.07,SSW,202,3.7,-999.0,72,-99.99,,,0.00,Acu-Link.com,2013-05-14 01:21:00,
2013-05-13 21:36:00,37.8,29.6,30.08,West,270,2.7,-999.0,72,-99.99,,,0.00,Acu-Link.com,2013-05-14 01:36:00,
2013-05-13 21:52:00,37.2,29.4,30.08,SSW,202,4.2,-999.0,73,-99.99,,,0.00,Acu-Link.com,2013-05-14 01:52:00,
2013-05-13 22:07:00,36.7,29.2,30.08,SW,225,1.7,-999.0,74,-99.99,,,0.00,Acu-Link.com,2013-05-14 02:07:00,
2013-05-13 22:22:00,36.1,29.0,30.09,West,270,2.7,-999.0,75,-99.99,,,0.00,Acu-Link.com,2013-05-14 02:22:00,
2013-05-13 22:37:00,35.2,28.7,30.09,South,180,1.1,-999.0,77,-99.99,,,0.00,Acu-Link.com,2013-05-14 02:37:00,
2013-05-13 22:53:00,34.5,28.7,30.09,SSE,157,0.0,-999.0,79,-99.99,,,0.00,Acu-Link.com,2013-05-14 02:53:00,
2013-05-13 23:08:00,33.8,28.3,30.10,South,180,0.0,-999.0,80,-99.99,,,0.00,Acu-Link.com,2013-05-14 03:08:00,
2013-05-13 23:23:00,32.5,28.2,30.10,ESE,112,0.0,-999.0,84,-99.99,,,0.00,Acu-Link.com,2013-05-14 03:23:00,
2013-05-13 23:38:00,32.4,28.4,30.10,ESE,112,0.0,-999.0,85,-99.99,,,0.00,Acu-Link.com,2013-05-14 03:38:00,
2013-05-13 23:54:00,32.0,28.3,30.10,ESE,112,0.0,-999.0,86,-99.99,,,0.00,Acu-Link.com,2013-05-14 03:54:00,